TimeEST,TemperatureF,Dew PointF,Humidity,Sea Level PressureIn,VisibilityMPH,Wind Direction,Wind SpeedMPH,Gust SpeedMPH,PrecipitationIn,Events,Conditions,WindDirDegrees,DateUTC
12:15 AM,43.5,41.9,94,29.82,10.0,WSW,8.1,-,N/A,,Clear,250,2013-02-27 05:15:00
12:35 AM,42.3,41.0,95,29.81,10.0,WSW,4.6,-,N/A,,Clear,240,2013-02-27 05:35:00
12:55 AM,41.9,40.3,94,29.83,10.0,WSW,5.8,-,N/A,,Clear,240,2013-02-27 05:55:00
1:15 AM,41.4,39.7,94,29.83,10.0,WSW,5.8,-,N/A,,Clear,240,2013-02-27 06:15:00
1:35 AM,41.0,39.2,93,29.84,10.0,SW,4.6,-,N/A,,Clear,230,2013-02-27 06:35:00
1:55 AM,40.5,38.7,93,29.84,10.0,SW,6.9,-,N/A,,Clear,230,2013-02-27 06:55:00
2:15 AM,40.3,38.5,93,29.84,10.0,SW,6.9,-,N/A,,Clear,230,2013-02-27 07:15:00
2:35 AM,39.7,38.1,94,29.83,10.0,SW,4.6,-,N/A,,Clear,230,2013-02-27 07:35:00
2:55 AM,39.2,37.8,95,29.83,10.0,SW,5.8,-,N/A,,Clear,230,2013-02-27 07:55:00
3:15 AM,39.2,37.8,95,29.83,10.0,SW,5.8,-,N/A,,Clear,230,2013-02-27 08:15:00
3:35 AM,39.4,37.6,93,29.83,10.0,WSW,5.8,-,N/A,,Clear,240,2013-02-27 08:35:00
3:55 AM,39.2,37.6,94,29.84,10.0,SW,6.9,-,N/A,,Scattered Clouds,220,2013-02-27 08:55:00
4:15 AM,39.4,37.8,94,29.85,10.0,WSW,8.1,-,N/A,,Mostly Cloudy,240,2013-02-27 09:15:00
4:35 AM,39.6,37.8,93,29.85,10.0,SW,4.6,-,N/A,,Overcast,230,2013-02-27 09:35:00
4:55 AM,39.0,37.4,94,29.86,10.0,SW,6.9,-,N/A,,Mostly Cloudy,230,2013-02-27 09:55:00
5:15 AM,38.3,36.7,94,29.86,10.0,SW,3.5,-,N/A,,Clear,220,2013-02-27 10:15:00
5:35 AM,37.8,36.5,95,29.86,10.0,SW,4.6,-,N/A,,Clear,220,2013-02-27 10:35:00
5:55 AM,37.6,36.5,96,29.87,10.0,SW,5.8,-,N/A,,Scattered Clouds,220,2013-02-27 10:55:00
6:35 AM,38.7,37.0,94,29.89,10.0,SW,5.8,-,N/A,,Overcast,220,2013-02-27 11:35:00
6:55 AM,39.4,37.0,91,29.90,10.0,SW,5.8,-,N/A,,Overcast,220,2013-02-27 11:55:00
7:15 AM,39.4,37.4,93,29.90,10.0,SW,4.6,-,N/A,,Overcast,230,2013-02-27 12:15:00
7:35 AM,39.4,37.4,93,29.90,10.0,SW,4.6,-,N/A,,Overcast,230,2013-02-27 12:35:00
7:55 AM,40.1,37.6,91,29.91,10.0,Calm,Calm,-,N/A,,Overcast,0,2013-02-27 12:55:00
8:15 AM,40.3,37.8,91,29.91,10.0,SSW,3.5,-,N/A,,Mostly Cloudy,210,2013-02-27 13:15:00
8:35 AM,41.0,38.3,90,29.92,10.0,SW,3.5,-,N/A,,Scattered Clouds,220,2013-02-27 13:35:00
8:55 AM,42.4,39.0,88,29.93,10.0,SW,3.5,-,N/A,,Clear,220,2013-02-27 13:55:00
9:15 AM,44.2,40.1,85,29.93,10.0,WSW,8.1,-,N/A,,Clear,240,2013-02-27 14:15:00
9:55 AM,45.7,39.7,80,29.93,10.0,WSW,12.7,17.3,N/A,,Scattered Clouds,250,2013-02-27 14:55:00
10:35 AM,47.3,39.7,75,29.93,10.0,West,13.8,18.4,N/A,,Mostly Cloudy,280,2013-02-27 15:35:00
10:55 AM,48.2,40.5,75,29.94,10.0,West,10.4,-,N/A,,Scattered Clouds,280,2013-02-27 15:55:00
11:15 AM,50.0,41.4,72,29.94,10.0,SW,9.2,-,N/A,,Scattered Clouds,230,2013-02-27 16:15:00
11:35 AM,50.9,41.5,70,29.93,10.0,SW,9.2,-,N/A,,Scattered Clouds,220,2013-02-27 16:35:00
11:55 AM,51.6,41.2,68,29.93,10.0,WSW,6.9,-,N/A,,Clear,240,2013-02-27 16:55:00
12:15 PM,52.5,40.6,64,29.93,10.0,West,6.9,-,N/A,,Clear,270,2013-02-27 17:15:00
12:35 PM,53.8,41.7,64,29.91,10.0,SW,9.2,17.3,N/A,,Clear,220,2013-02-27 17:35:00
12:55 PM,55.0,41.9,61,29.90,10.0,SSW,10.4,17.3,N/A,,Clear,210,2013-02-27 17:55:00
1:15 PM,55.9,42.4,61,29.90,10.0,SW,8.1,-,N/A,,Clear,230,2013-02-27 18:15:00
1:35 PM,56.7,42.3,59,29.88,10.0,SW,11.5,17.3,N/A,,Clear,220,2013-02-27 18:35:00
1:55 PM,57.4,42.1,57,29.88,10.0,West,8.1,-,N/A,,Clear,260,2013-02-27 18:55:00
2:15 PM,57.7,41.9,56,29.87,10.0,WSW,9.2,-,N/A,,Clear,250,2013-02-27 19:15:00
2:35 PM,58.8,41.4,52,29.87,10.0,WSW,15.0,21.9,N/A,,Clear,240,2013-02-27 19:35:00
2:55 PM,59.2,41.2,51,29.86,10.0,WSW,10.4,16.1,N/A,,Clear,250,2013-02-27 19:55:00
3:35 PM,60.1,39.9,47,29.85,10.0,West,11.5,19.6,N/A,,Clear,270,2013-02-27 20:35:00
3:55 PM,60.4,40.5,48,29.85,10.0,WSW,9.2,21.9,N/A,,Clear,240,2013-02-27 20:55:00
4:15 PM,60.4,40.6,48,29.85,10.0,SW,9.2,-,N/A,,Clear,230,2013-02-27 21:15:00
4:35 PM,60.1,39.9,47,29.85,10.0,WSW,9.2,17.3,N/A,,Clear,250,2013-02-27 21:35:00
4:55 PM,59.9,39.7,47,29.85,10.0,West,6.9,-,N/A,,Clear,260,2013-02-27 21:55:00
5:15 PM,59.9,40.1,48,29.85,10.0,WSW,9.2,18.4,N/A,,Clear,250,2013-02-27 22:15:00
5:35 PM,59.2,39.9,49,29.85,10.0,West,8.1,-,N/A,,Clear,260,2013-02-27 22:35:00
5:55 PM,58.3,40.1,51,29.86,10.0,West,6.9,-,N/A,,Clear,260,2013-02-27 22:55:00
6:15 PM,56.1,40.5,56,29.86,10.0,WSW,3.5,-,N/A,,Clear,250,2013-02-27 23:15:00
6:35 PM,54.3,40.5,59,29.85,10.0,SW,4.6,-,N/A,,Clear,230,2013-02-27 23:35:00
6:55 PM,53.4,40.1,61,29.85,10.0,SSW,4.6,-,N/A,,Clear,200,2013-02-27 23:55:00
7:15 PM,51.3,40.8,67,29.86,10.0,Calm,Calm,-,N/A,,Clear,0,2013-02-28 00:15:00
7:35 PM,47.7,41.7,80,29.86,10.0,SW,4.6,-,N/A,,Clear,230,2013-02-28 00:35:00
7:55 PM,48.9,40.5,73,29.86,10.0,SW,5.8,-,N/A,,Clear,230,2013-02-28 00:55:00
8:15 PM,49.5,39.6,69,29.86,10.0,SW,6.9,-,N/A,,Clear,230,2013-02-28 01:15:00
8:35 PM,49.1,39.6,70,29.86,10.0,WSW,5.8,-,N/A,,Clear,240,2013-02-28 01:35:00
8:55 PM,49.6,39.4,68,29.86,10.0,SW,5.8,-,N/A,,Clear,230,2013-02-28 01:55:00
9:15 PM,49.3,39.2,68,29.87,10.0,SSW,4.6,-,N/A,,Clear,210,2013-02-28 02:15:00
9:35 PM,48.4,39.0,70,29.88,10.0,SSW,5.8,-,N/A,,Clear,210,2013-02-28 02:35:00
9:55 PM,47.5,39.7,75,29.88,10.0,SSW,5.8,-,N/A,,Clear,210,2013-02-28 02:55:00
10:15 PM,47.5,40.3,76,29.89,10.0,SW,5.8,-,N/A,,Clear,220,2013-02-28 03:15:00
10:35 PM,47.1,40.6,78,29.89,10.0,SSW,5.8,-,N/A,,Clear,210,2013-02-28 03:35:00
10:55 PM,46.8,41.0,80,29.89,10.0,SW,5.8,-,N/A,,Clear,220,2013-02-28 03:55:00
11:15 PM,46.6,41.0,81,29.89,10.0,SW,5.8,-,N/A,,Clear,220,2013-02-28 04:15:00
11:35 PM,47.1,41.0,79,29.88,10.0,SW,8.1,-,N/A,,Clear,220,2013-02-28 04:35:00
11:55 PM,46.4,40.6,80,29.88,10.0,SW,4.6,-,N/A,,Clear,220,2013-02-28 04:55:00